Tracking 18630 objects as of 25-May-2017
HD Live streaming from Space Station
objects crossing your sky now

OPS 3367 A

Track OPS 3367 A now!
10-day predictions
OPS 3367 A is classified as:


NORAD ID: 734
Int'l Code: 1964-002B
Perigee: 791.9 km
Apogee: 813.9 km
Inclination: 99.0 °
Period: 100.8 minutes
Semi major axis: 7173 km
RCS: 0.3359 m2 (medium)
Launch date: January 19, 1964
Source: United States (US)
Launch site: AIR FORCE WESTERN TEST RANGE (AFWTR)
Your satellite tracking list
Your tracking list is empty





NASA's NSSDC Master Catalog

Two Line Element Set (TLE):
1   734U 64002B   17144.90649999 -.00000013 +00000-0 +13420-4 0  9997
2   734 098.9916 263.1682 0015339 050.1446 310.1081 14.28797131775980
Source of the keplerian elements: AFSPC